sat.trackr.live / text

‹ back to catalog

STARLINK-36416

NORAD 67630 · 2026-020P

PAYLOAD ACTIVE UNKNOWN

§ Identity

Operator
Country
US
Launch date
2026-01-30
Launch site
AFETR
Launch vehicle
Mass (kg)
RCS (m²)

Purposes: comms

External: N2YO · Heavens-Above · Gunter

§ Orbital elements

Epoch: 2026-05-25T04:36:05.498784Z

Period
94.26 min
Inclination
43.0031°
Eccentricity
0.0001715
Mean motion
15.27609667 rev/d
Perigee alt
481.8 km
Apogee alt
484.1 km
Semi-major
6,861.1 km
B*
8.9502e-4
RAAN
67.7341°
Arg perigee
276.7504°
Mean anomaly
83.3153°
Rev number
1,781

§ Raw data

STARLINK-364161 67630U 26020P   26145.19173031  .00024471  00000+0  89502-3 0  99992 67630  43.0031  67.7341 0001715 276.7504  83.3153 15.27609667 17817

JSON: /api/v1/satellites/67630 · /tle

For live sub-satellite position, see the globe view (requires WebGL).

§ Visibility from observer

Set your observer location to see the next 7 days of passes ≥ 10°. The values pass through the URL so the page stays shareable.

No JS? Fill the form by hand. The geolocation button needs JavaScript.